DW4341 Weather Reports


Display with metric or nautical units.
time (UTC)temp
F
wind
direction
speed
MPH
gust
MPH
rain 1hr
in
rain 24hr
in
rain mn
in
humidity
%
barometer
mb
20210923174652 69 268 4.0 13.0 0.20 0.21 0.21 60 1012.0
20210923173140 70 296 8.0 14.0 0.14 0.15 0.15 60 1011.7
20210923171648 77 242 7.0 13.0 0.00 0.01 0.01 60 1011.6
20210923170127 81 154 4.0 17.0 0.00 0.01 0.01 60 1011.1
20210923114715 75 155 5.0 15.0 0.00 0.00 0.00 62 1011.5
20210923113150 75 128 3.0 12.0 0.00 0.00 0.00 62 1011.7
20210923111558 75 210 3.0 10.0 0.00 0.00 0.00 62 1011.5
20210923110129 75 157 3.0 11.0 0.00 0.00 0.00 62 1011.5
20210923104638 75 134 3.0 12.0 0.00 0.00 0.00 62 1011.4
20210923103108 75 83 4.0 12.0 0.00 0.00 0.00 62 1011.6
20210923101624 75 108 3.0 11.0 0.00 0.00 0.00 63 1011.6
20210923100128 75 153 2.0 8.0 0.00 0.00 0.00 63 1011.6
20210923094626 75 184 4.0 12.0 0.00 0.00 0.00 63 1011.7
20210923093114 75 108 2.0 14.0 0.00 0.00 0.00 63 1011.7
20210923091649 74 105 3.0 9.0 0.00 0.00 0.00 63 1011.7
20210923090145 74 220 3.0 11.0 0.00 0.00 0.00 64 1011.8
20210923084632 74 166 4.0 11.0 0.00 0.00 0.00 64 1011.6
20210923083125 74 98 5.0 16.0 0.00 0.00 0.00 64 1011.5
20210923081728 74 158 4.0 13.0 0.00 0.00 0.00 64 1011.6
20210923080112 74 82 3.0 15.0 0.00 0.00 0.00 64 1012.0
20210923074639 74 70 4.0 14.0 0.00 0.00 0.00 64 1012.1
20210923073141 74 79 3.0 12.0 0.00 0.00 0.00 64 1012.4
20210923071631 74 217 4.0 15.0 0.00 0.00 0.00 64 1012.6
20210923070238 74 75 5.0 14.0 0.00 0.00 0.00 64 1012.8
20210923064607 74 88 3.0 13.0 0.00 0.00 0.00 64 1012.9
20210923063215 74 108 4.0 12.0 0.00 0.00 0.00 64 1013.0
20210923061610 74 77 2.0 13.0 0.00 0.00 0.00 64 1013.1
20210923060120 74 120 2.0 11.0 0.00 0.00 0.00 64 1013.2
20210923054719 74 191 5.0 11.0 0.00 0.00 0.00 64 1013.3
20210923053227 74 105 3.0 10.0 0.00 0.00 0.00 64 1013.6
20210923051631 74 275 3.0 11.0 0.00 0.00 0.00 64 1013.9
20210923050118 74 84 3.0 12.0 0.00 0.00 0.00 64 1014.0
20210923044637 74 94 4.0 10.0 0.00 0.00 0.00 64 1014.1
20210923043206 74 146 2.0 7.0 0.00 0.00 0.00 64 1014.2
20210923041632 75 94 2.0 12.0 0.00 0.00 0.00 64 1014.3
20210923040149 75 133 3.0 13.0 0.00 0.00 0.00 64 1014.3
20210923034648 75 209 2.0 12.0 0.00 0.00 0.00 64 1014.3
20210923033153 75 233 2.0 11.0 0.00 0.00 0.00 64 1014.2
20210923031644 75 101 3.0 12.0 0.00 0.00 0.00 64 1014.2
20210923030129 75 54 4.0 10.0 0.00 0.00 0.00 65 1014.1
20210923024640 75 155 2.0 12.0 0.00 0.00 0.00 65 1014.0
20210923023124 75 164 2.0 12.0 0.00 0.00 0.00 64 1014.2
20210923021613 75 179 3.0 9.0 0.00 0.00 0.00 64 1014.1
20210923020150 75 126 3.0 12.0 0.00 0.00 0.00 64 1014.2
20210923014638 75 121 3.0 7.0 0.00 0.00 0.00 64 1014.2
20210923013155 75 347 3.0 11.0 0.00 0.00 0.00 64 1014.3
20210923011727 75 125 3.0 9.0 0.00 0.00 0.00 63 1014.6
20210923010127 75 171 2.0 9.0 0.00 0.00 0.00 63 1014.7
20210923004627 75 89 2.0 6.0 0.00 0.00 0.00 62 1014.7
20210923003212 75 111 2.0 9.0 0.00 0.00 0.00 62 1014.6
20210923001613 75 153 2.0 7.0 0.00 0.00 0.00 61 1014.6
20210923000141 75 140 2.0 7.0 0.00 0.00 0.00 61 1014.6
20210922234727 75 203 2.0 7.0 0.00 0.00 0.00 60 1014.7
20210922233128 75 214 2.0 8.0 0.00 0.00 0.00 60 1014.8
20210922231630 75 131 2.0 6.0 0.00 0.00 0.00 60 1014.9
20210922230121 76 91 1.0 7.0 0.00 0.00 0.00 59 1014.9
20210922224635 76 169 3.0 11.0 0.00 0.00 0.00 59 1015.0
20210922223145 77 240 2.0 8.0 0.00 0.00 0.00 59 1015.2
20210922221611 77 142 3.0 11.0 0.00 0.00 0.00 59 1015.3
20210922220114 78 112 2.0 7.0 0.00 0.00 0.00 59 1015.5
20210922214637 78 129 3.0 17.0 0.00 0.00 0.00 58 1015.5
20210922213150 78 86 4.0 12.0 0.00 0.00 0.00 58 1015.6
20210922211618 79 221 3.0 9.0 0.00 0.00 0.00 58 1015.7
20210922210226 79 266 4.0 8.0 0.00 0.00 0.00 58 1015.5
20210922204615 79 111 3.0 9.0 0.00 0.00 0.00 57 1015.4
20210922203210 80 220 3.0 9.0 0.00 0.00 0.00 57 1015.6
20210922201605 80 176 5.0 14.0 0.00 0.00 0.00 57 1015.6
20210922200201 80 219 3.0 11.0 0.00 0.00 0.00 57 1015.6
20210922194706 81 70 4.0 11.0 0.00 0.00 0.00 57 1015.7
20210922193131 81 229 5.0 15.0 0.00 0.00 0.00 57 1015.8
20210922191617 81 149 4.0 12.0 0.00 0.00 0.00 57 1016.0
20210922190122 81 195 4.0 15.0 0.00 0.00 0.00 56 1016.0
20210922184611 82 158 5.0 13.0 0.00 0.00 0.00 57 1016.1
20210922183153 84 63 3.0 17.0 0.00 0.00 0.00 57 1016.2
20210922181646 82 80 4.0 15.0 0.00 0.00 0.00 57 1016.4
20210922180103 82 215 4.0 11.0 0.00 0.00 0.00 57 1016.5